Location: D�derode
(51.8092°N, 10.1065°E)
Time: 23:34:45
(UTC+00:00)

Cosmos 1869 Rocket - Pass Details

Date: 21 April 2021
Orbit: 603 x 634 km, 82.5° (Epoch: 14 May)

Event Time Altitude Azimuth Distance (km) Brightness Sun altitude
Rises 00:12:49 0° 345° (NNW) 2,900 7.9 -25.2°
Reaches altitude 10° 00:15:06 10° 341° (NNW) 1,985 6.9 -25.1°
Enters shadow 00:18:40 47° 300° (WNW) 812 4.1 -25.0°
